Location: North Fort Myers
(26.6673°N, 81.8801°W)
Time: 13:58:59
(UTC+00:00)

Envisat - Pass Details

Date: 16 August 2022
Orbit: 764 x 765 km, 98.2° (Epoch: 26 September)

Event Time Altitude Azimuth Distance (km) Brightness Sun altitude
Rises 08:55:36 0° 29° (NNE) 3,229 7.2 -26.2°
Reaches altitude 10° 08:58:18 10° 42° (NE) 2,299 6.4 -25.7°
Maximum altitude 09:02:26 25° 97° (E) 1,502 5.0 -24.9°
Drops below altitude 10° 09:06:32 10° 152° (SSE) 2,290 5.4 -24.1°
Enters shadow 09:08:23 - 162° (SSE) 2,917 5.9 -23.7°
